Menu Close Menu
Station Historical Data
Daily Summary for August 14, 2017 Units:  Metric    English   Both
« Previous Day
Next Day »
Daily Weekly Monthly Yearly Custom
  High: Low: Average:
Temperature: 34.2 °C 22 °C 26.1 °C
Dew Point: 24.1 °C 20.7 °C 22.1 °C
Humidity: 93% 51% 80%
Wind Speed: 1.6km/h 0km/h 0km/h
Wind Gust: 8km/h - -
Wind- - South
Pressure: 1014.4 hPa 1010.4 hPa -
Precipitation: 0 mm    
Historical Graphs
 
 
Tabular Data for August 14, 2017
Time Temperature Dew Point Pressure Wind Wind Speed Wind Gust Humidity Rainfall Rate (Hourly) solar Conditions
00:00 23.8 °C 21.7 °C 1014.4 hPa Calm     88% 0 mm WeatherDisplay:10.37 W/m2 SCT
00:10 23.7 °C 21.6 °C 1014.1 hPa Calm     88% 0 mm WeatherDisplay:10.37 W/m2 SCT
00:15 23.7 °C 21.6 °C 1014.1 hPa Calm     88% 0 mm WeatherDisplay:10.37 W/m2 CLR
00:20 23.6 °C 21.5 °C 1014.1 hPa Calm     88% 0 mm WeatherDisplay:10.37 W/m2 CLR
00:25 23.6 °C 21.5 °C 1013.8 hPa Calm     88% 0 mm WeatherDisplay:10.37 W/m2 CLR
00:30 23.5 °C 21.6 °C 1013.8 hPa Calm     89% 0 mm WeatherDisplay:10.37 W/m2 CLR
00:35 23.4 °C 21.5 °C 1013.8 hPa Calm     89% 0 mm WeatherDisplay:10.37 W/m2 CLR
00:40 23.4 °C 21.4 °C 1013.8 hPa Calm     89% 0 mm WeatherDisplay:10.37 W/m2 CLR
00:45 23.3 °C 21.4 °C 1013.8 hPa Calm     89% 0 mm WeatherDisplay:10.37 W/m2 CLR
00:50 23.3 °C 21.4 °C 1013.8 hPa Calm     89% 0 mm WeatherDisplay:10.37 W/m2 CLR
00:55 23.3 °C 21.4 °C 1013.8 hPa Calm     89% 0 mm WeatherDisplay:10.37 W/m2 CLR
01:00 23.2 °C 21.5 °C 1013.8 hPa Calm     90% 0 mm WeatherDisplay:10.37 W/m2 CLR
01:05 23.2 °C 21.4 °C 1013.4 hPa Calm     90% 0 mm WeatherDisplay:10.37 W/m2 CLR
01:10 23.1 °C 21.4 °C 1013.4 hPa Calm     90% 0 mm WeatherDisplay:10.37 W/m2 CLR
01:15 23.1 °C 21.4 °C 1013.4 hPa Calm     90% 0 mm WeatherDisplay:10.37 W/m2 CLR
01:20 23.1 °C 21.3 °C 1013.4 hPa Calm     90% 0 mm WeatherDisplay:10.37 W/m2 CLR
01:25 23 °C 21.3 °C 1013.4 hPa Calm     90% 0 mm WeatherDisplay:10.37 W/m2 CLR
01:30 22.9 °C 21.2 °C 1013.4 hPa Calm     90% 0 mm WeatherDisplay:10.37 W/m2 CLR
01:35 22.9 °C 21.2 °C 1013.1 hPa Calm     90% 0 mm WeatherDisplay:10.37 W/m2 CLR
01:40 22.8 °C 21.1 °C 1013.4 hPa Calm     90% 0 mm WeatherDisplay:10.37 W/m2 CLR
01:45 22.8 °C 21.3 °C 1013.4 hPa Calm     91% 0 mm WeatherDisplay:10.37 W/m2 CLR
01:50 22.8 °C 21.2 °C 1013.1 hPa Calm     91% 0 mm WeatherDisplay:10.37 W/m2 CLR
01:55 22.7 °C 21.2 °C 1013.1 hPa Calm     91% 0 mm WeatherDisplay:10.37 W/m2 CLR
02:00 22.7 °C 21.1 °C 1013.1 hPa Calm     91% 0 mm WeatherDisplay:10.37 W/m2 CLR
02:05 22.7 °C 21.1 °C 1013.1 hPa Calm     91% 0 mm WeatherDisplay:10.37 W/m2 CLR
02:10 22.6 °C 21.1 °C 1013.1 hPa Calm     91% 0 mm WeatherDisplay:10.37 W/m2 CLR
02:15 22.6 °C 21.1 °C 1013.1 hPa Calm     91% 0 mm WeatherDisplay:10.37 W/m2 CLR
02:20 22.6 °C 21.1 °C 1013.1 hPa Calm     91% 0 mm WeatherDisplay:10.37 W/m2 CLR
02:25 22.7 °C 21.2 °C 1013.1 hPa Calm     91% 0 mm WeatherDisplay:10.37 W/m2 CLR
02:30 22.7 °C 21.2 °C 1013.1 hPa Calm     91% 0 mm WeatherDisplay:10.37 W/m2 CLR
02:35 22.7 °C 21.2 °C 1013.4 hPa Calm     91% 0 mm WeatherDisplay:10.37 W/m2 CLR
02:40 22.7 °C 21.2 °C 1013.4 hPa Calm     91% 0 mm WeatherDisplay:10.37 W/m2 CLR
02:45 22.7 °C 21.1 °C 1013.1 hPa Calm     91% 0 mm WeatherDisplay:10.37 W/m2 CLR
02:50 22.6 °C 21.1 °C 1013.1 hPa Calm     91% 0 mm WeatherDisplay:10.37 W/m2 CLR
02:55 22.6 °C 21 °C 1013.1 hPa Calm     91% 0 mm WeatherDisplay:10.37 W/m2 CLR
03:00 22.6 °C 21 °C 1013.1 hPa Calm     91% 0 mm WeatherDisplay:10.37 W/m2 CLR
03:05 22.5 °C 20.9 °C 1013.1 hPa Calm     91% 0 mm WeatherDisplay:10.37 W/m2 CLR
03:10 22.5 °C 20.9 °C 1013.1 hPa Calm     91% 0 mm WeatherDisplay:10.37 W/m2 CLR
03:15 22.5 °C 20.9 °C 1013.1 hPa Calm     91% 0 mm WeatherDisplay:10.37 W/m2 FEW
03:20 22.5 °C 20.9 °C 1013.1 hPa Calm     91% 0 mm WeatherDisplay:10.37 W/m2 FEW
03:25 22.5 °C 21.1 °C 1013.1 hPa Calm     92% 0 mm WeatherDisplay:10.37 W/m2 FEW
03:30 22.6 °C 21.2 °C 1013.1 hPa Calm     92% 0 mm WeatherDisplay:10.37 W/m2 FEW
03:35 22.6 °C 21.2 °C 1013.1 hPa Calm     92% 0 mm WeatherDisplay:10.37 W/m2 FEW
03:40 22.6 °C 21.2 °C 1013.1 hPa Calm     92% 0 mm WeatherDisplay:10.37 W/m2 FEW
03:45 22.4 °C 20.9 °C 1013.1 hPa Calm     91% 0 mm WeatherDisplay:10.37 W/m2 FEW
03:50 22.4 °C 20.8 °C 1013.1 hPa Calm     91% 0 mm WeatherDisplay:10.37 W/m2 FEW
03:55 22.3 °C 20.8 °C 1013.1 hPa Calm     91% 0 mm WeatherDisplay:10.37 W/m2 FEW
04:00 22.3 °C 20.8 °C 1013.1 hPa Calm     91% 0 mm WeatherDisplay:10.37 W/m2 FEW
04:10 22.3 °C 20.9 °C 1013.1 hPa Calm     92% 0 mm WeatherDisplay:10.37 W/m2 FEW
04:15 22.3 °C 20.9 °C 1013.1 hPa Calm     92% 0 mm WeatherDisplay:10.37 W/m2 SCT
04:25 22.3 °C 21 °C 1013.1 hPa Calm     92% 0 mm WeatherDisplay:10.37 W/m2 SCT
04:30 22.4 °C 21.1 °C 1013.1 hPa Calm     92% 0 mm WeatherDisplay:10.37 W/m2 SCT
04:40 22.5 °C 21.1 °C 1013.1 hPa Calm     92% 0 mm WeatherDisplay:10.37 W/m2 SCT
04:45 22.4 °C 21.1 °C 1013.1 hPa Calm     92% 0 mm WeatherDisplay:10.37 W/m2 SCT
04:50 22.4 °C 21.1 °C 1013.1 hPa Calm     92% 0 mm WeatherDisplay:10.37 W/m2 SCT
04:55 22.4 °C 21.1 °C 1013.1 hPa Calm     92% 0 mm WeatherDisplay:10.37 W/m2 SCT
05:00 22.4 °C 21.1 °C 1013.1 hPa Calm     92% 0 mm WeatherDisplay:10.37 W/m2 SCT
05:05 22.4 °C 21.1 °C 1013.1 hPa Calm     92% 0 mm WeatherDisplay:10.37 W/m2 SCT
05:10 22.5 °C 21.1 °C 1013.4 hPa Calm     92% 0 mm WeatherDisplay:10.37 W/m2 SCT
05:15 22.4 °C 21.1 °C 1013.4 hPa Calm     92% 0 mm WeatherDisplay:10.37 W/m2 BKN
05:20 22.4 °C 21.1 °C 1013.4 hPa Calm     92% 0 mm WeatherDisplay:10.37 W/m2 BKN
05:25 22.4 °C 21 °C 1013.4 hPa Calm     92% 0 mm WeatherDisplay:10.37 W/m2 BKN
05:30 22.4 °C 21 °C 1013.4 hPa Calm     92% 0 mm WeatherDisplay:10.37 W/m2 BKN
05:40 22.4 °C 21 °C 1013.4 hPa Calm     92% 0 mm WeatherDisplay:10.37 W/m2 BKN
05:45 22.4 °C 21 °C 1013.4 hPa Calm     92% 0 mm WeatherDisplay:10.37 W/m2 BKN
05:50 22.3 °C 20.9 °C 1013.4 hPa Calm     92% 0 mm WeatherDisplay:10.37 W/m2 BKN
05:55 22.3 °C 20.9 °C 1013.4 hPa Calm     92% 0 mm WeatherDisplay:10.37 W/m2 BKN
06:00 22.3 °C 20.9 °C 1013.4 hPa Calm     92% 0 mm WeatherDisplay:10.37 W/m2 BKN
06:05 22.3 °C 20.9 °C 1013.4 hPa Calm     92% 0 mm WeatherDisplay:10.37 W/m2 BKN
06:10 22.3 °C 20.9 °C 1013.4 hPa Calm     92% 0 mm WeatherDisplay:10.37 W/m2 BKN
06:15 22.3 °C 20.9 °C 1013.4 hPa Calm     92% 0 mm WeatherDisplay:10.37 W/m2 FEW
06:20 22.3 °C 20.9 °C 1013.4 hPa Calm     92% 0 mm WeatherDisplay:10.37 W/m2 FEW
06:25 22.2 °C 20.8 °C 1013.4 hPa Calm     92% 0 mm WeatherDisplay:10.37 W/m2 FEW
06:30 22.2 °C 20.8 °C 1013.8 hPa Calm     92% 0 mm WeatherDisplay:10.37 W/m2 FEW
06:40 22.1 °C 20.8 °C 1013.8 hPa Calm     92% 0 mm WeatherDisplay:10.37 W/m2 FEW
06:45 22.1 °C 20.7 °C 1013.8 hPa Calm     92% 0 mm WeatherDisplay:10.37 W/m2 FEW
06:50 22.1 °C 20.7 °C 1013.8 hPa Calm     92% 0 mm WeatherDisplay:10.37 W/m2 FEW
06:55 22.1 °C 20.7 °C 1014.1 hPa Calm     92% 0 mm WeatherDisplay:10.37 W/m2 FEW
07:00 22 °C 20.7 °C 1013.8 hPa Calm     92% 0 mm WeatherDisplay:10.37 W/m2 FEW
07:05 22 °C 20.8 °C 1014.1 hPa Calm     93% 0 mm WeatherDisplay:10.37 W/m2 FEW
07:10 22 °C 20.8 °C 1014.1 hPa Calm     93% 0 mm WeatherDisplay:10.37 W/m2 FEW
07:15 22 °C 20.8 °C 1014.1 hPa Calm     93% 0 mm WeatherDisplay:10.37 W/m2 BKN
07:20 22 °C 20.8 °C 1014.1 hPa Calm     93% 0 mm WeatherDisplay:10.37 W/m2 BKN
07:25 22.1 °C 20.9 °C 1014.1 hPa Calm     93% 0 mm WeatherDisplay:10.37 W/m2 BKN
07:30 22.1 °C 20.9 °C 1014.1 hPa Calm     93% 0 mm WeatherDisplay:10.37 W/m2 BKN
07:35 22.1 °C 20.9 °C 1014.1 hPa Calm     93% 0 mm WeatherDisplay:10.37 W/m2 BKN
07:40 22.1 °C 20.9 °C 1014.1 hPa Calm     93% 0 mm WeatherDisplay:10.37 W/m2 BKN
07:50 22.2 °C 21.1 °C 1013.8 hPa Calm     93% 0 mm WeatherDisplay:10.37 W/m2 BKN
07:55 22.3 °C 21.2 °C 1013.8 hPa Calm     93% 0 mm WeatherDisplay:10.37 W/m2 BKN
08:00 22.4 °C 21.2 °C 1013.8 hPa Calm     93% 0 mm WeatherDisplay:10.37 W/m2 BKN
08:05 22.5 °C 21.3 °C 1013.8 hPa Calm     93% 0 mm WeatherDisplay:10.37 W/m2 BKN
08:10 22.6 °C 21.4 °C 1013.8 hPa Calm     93% 0 mm WeatherDisplay:10.37 W/m2 BKN
08:15 22.7 °C 21.6 °C 1014.1 hPa Calm     93% 0 mm WeatherDisplay:10.37 W/m2 SCT
08:20 22.8 °C 21.6 °C 1014.1 hPa Calm     93% 0 mm WeatherDisplay:10.37 W/m2 SCT
08:25 22.9 °C 21.7 °C 1014.1 hPa Calm     93% 0 mm WeatherDisplay:10.37 W/m2 SCT
08:30 23.1 °C 21.9 °C 1014.1 hPa Calm     93% 0 mm WeatherDisplay:10.37 W/m2 SCT
08:35 23.3 °C 22.1 °C 1014.1 hPa Calm     93% 0 mm WeatherDisplay:10.37 W/m2 SCT
08:40 23.4 °C 22.1 °C 1014.1 hPa Calm     92% 0 mm WeatherDisplay:10.37 W/m2 SCT
08:50 23.8 °C 22.5 °C 1014.1 hPa Calm     92% 0 mm WeatherDisplay:10.37 W/m2 SCT
08:55 24.1 °C 22.6 °C 1014.1 hPa Calm     91% 0 mm WeatherDisplay:10.37 W/m2 SCT
09:00 24.4 °C 22.8 °C 1014.1 hPa Calm   1.6 km/h 91% 0 mm WeatherDisplay:10.37 W/m2 SCT
09:05 24.6 °C 22.9 °C 1014.1 hPa Calm     90% 0 mm WeatherDisplay:10.37 W/m2 SCT
09:10 24.8 °C 22.8 °C 1014.1 hPa Calm     89% 0 mm WeatherDisplay:10.37 W/m2 SCT
09:20 25.3 °C 23.2 °C 1014.1 hPa Calm   1.6 km/h 88% 0 mm WeatherDisplay:10.37 W/m2 BKN
09:25 25.5 °C 23.2 °C 1014.1 hPa Calm     87% 0 mm WeatherDisplay:10.37 W/m2 BKN
09:30 25.6 °C 23.1 °C 1014.1 hPa Calm     86% 0 mm WeatherDisplay:10.37 W/m2 BKN
09:40 25.7 °C 23.2 °C 1014.1 hPa Calm     86% 0 mm WeatherDisplay:10.37 W/m2 BKN
09:45 25.8 °C 23.3 °C 1014.1 hPa Calm     86% 0 mm WeatherDisplay:10.37 W/m2 BKN
09:50 25.9 °C 23.2 °C 1014.1 hPa Calm   1.6 km/h 85% 0 mm WeatherDisplay:10.37 W/m2 BKN
09:55 26.2 °C 23.4 °C 1014.1 hPa Calm     85% 0 mm WeatherDisplay:10.37 W/m2 BKN
10:00 26.3 °C 23.2 °C 1014.1 hPa Calm   1.6 km/h 83% 0 mm WeatherDisplay:10.37 W/m2 BKN
10:10 26.6 °C 23.5 °C 1014.1 hPa Calm   1.6 km/h 83% 0 mm WeatherDisplay:10.37 W/m2 BKN
10:15 26.8 °C 23.5 °C 1014.1 hPa Calm     82% 0 mm WeatherDisplay:10.37 W/m2 SCT
10:20 27.2 °C 23.6 °C 1014.1 hPa Calm     81% 0 mm WeatherDisplay:10.37 W/m2 SCT
10:25 27.4 °C 23.7 °C 1014.1 hPa Calm     80% 0 mm WeatherDisplay:10.37 W/m2 SCT
10:30 27.7 °C 23.4 °C 1014.1 hPa Calm     78% 0 mm WeatherDisplay:10.37 W/m2 SCT
10:40 28.1 °C 24.1 °C 1014.1 hPa Calm     79% 0 mm WeatherDisplay:10.37 W/m2 SCT
10:45 28.1 °C 23.4 °C 1014.1 hPa Calm     76% 0 mm WeatherDisplay:10.37 W/m2 SCT
10:50 28.1 °C 23.2 °C 1014.1 hPa Calm     75% 0 mm WeatherDisplay:10.37 W/m2 SCT
10:55 28.1 °C 23 °C 1014.1 hPa Calm     74% 0 mm WeatherDisplay:10.37 W/m2 SCT
11:00 28.3 °C 23.4 °C 1014.1 hPa Calm     75% 0 mm WeatherDisplay:10.37 W/m2 SCT
11:05 28.4 °C 23.3 °C 1014.1 hPa Calm   1.6 km/h 74% 0 mm WeatherDisplay:10.37 W/m2 SCT
11:10 28.7 °C 24 °C 1014.1 hPa Calm     76% 0 mm WeatherDisplay:10.37 W/m2 SCT
11:15 28.8 °C 23.5 °C 1014.1 hPa Calm     73% 0 mm WeatherDisplay:10.37 W/m2 BKN
11:20 28.9 °C 22.4 °C 1013.8 hPa Calm   1.6 km/h 68% 0 mm WeatherDisplay:10.37 W/m2 BKN
11:25 28.8 °C 23.3 °C 1013.8 hPa Calm     72% 0 mm WeatherDisplay:10.37 W/m2 BKN
11:30 28.9 °C 23.4 °C 1013.8 hPa Calm     72% 0 mm WeatherDisplay:10.37 W/m2 BKN
11:40 29.1 °C 23 °C 1013.8 hPa Calm   1.6 km/h 70% 0 mm WeatherDisplay:10.37 W/m2 BKN
11:45 29.1 °C 23 °C 1013.8 hPa Calm   1.6 km/h 70% 0 mm WeatherDisplay:10.37 W/m2 BKN
11:50 29.2 °C 23.6 °C 1013.8 hPa Calm   1.6 km/h 72% 0 mm WeatherDisplay:10.37 W/m2 BKN
11:55 29.3 °C 23.7 °C 1013.8 hPa Calm     72% 0 mm WeatherDisplay:10.37 W/m2 BKN
12:00 29.5 °C 23.2 °C 1013.8 hPa Calm   1.6 km/h 69% 0 mm WeatherDisplay:10.37 W/m2 BKN
12:10 29.6 °C 23.2 °C 1013.8 hPa Calm   1.6 km/h 69% 0 mm WeatherDisplay:10.37 W/m2 BKN
12:15 29.7 °C 23.6 °C 1013.4 hPa Calm   1.6 km/h 70% 0 mm WeatherDisplay:10.37 W/m2 BKN
12:25 30.1 °C 23.3 °C 1013.4 hPa Calm   3.2 km/h 67% 0 mm WeatherDisplay:10.37 W/m2 BKN
12:30 30.4 °C 23.3 °C 1013.4 hPa Calm   1.6 km/h 66% 0 mm WeatherDisplay:10.37 W/m2 BKN
12:40 30.6 °C 23 °C 1013.4 hPa Calm   1.6 km/h 64% 0 mm WeatherDisplay:10.37 W/m2 BKN
12:45 30.4 °C 23.1 °C 1013.4 hPa Calm   3.2 km/h 65% 0 mm WeatherDisplay:10.37 W/m2 BKN
12:50 30.4 °C 22.9 °C 1013.4 hPa Calm     64% 0 mm WeatherDisplay:10.37 W/m2 BKN
12:55 30.7 °C 23.3 °C 1013.4 hPa Calm     65% 0 mm WeatherDisplay:10.37 W/m2 BKN
13:00 30.8 °C 23.5 °C 1013.4 hPa Calm   1.6 km/h 65% 0 mm WeatherDisplay:10.37 W/m2 BKN
13:10 31.6 °C 22.9 °C 1013.1 hPa Calm   3.2 km/h 60% 0 mm WeatherDisplay:10.37 W/m2 BKN
13:15 31.9 °C 23.4 °C 1013.1 hPa Calm   8 km/h 61% 0 mm WeatherDisplay:10.37 W/m2 BKN
13:20 32.3 °C 23.3 °C 1013.1 hPa Calm     59% 0 mm WeatherDisplay:10.37 W/m2 BKN
13:25 32.6 °C 22.4 °C 1013.1 hPa SW 1.6 km/h 4.8 km/h 55% 0 mm WeatherDisplay:10.37 W/m2 BKN
13:30 33 °C 22.4 °C 1013.1 hPa Calm     54% 0 mm WeatherDisplay:10.37 W/m2 BKN
13:40 33.4 °C 22.5 °C 1013.1 hPa Calm     53% 0 mm WeatherDisplay:10.37 W/m2 BKN
13:45 33.4 °C 23.1 °C 1012.8 hPa Calm   1.6 km/h 55% 0 mm WeatherDisplay:10.37 W/m2 BKN
13:50 33.9 °C 23.3 °C 1012.8 hPa Calm     54% 0 mm WeatherDisplay:10.37 W/m2 BKN
13:55 34.2 °C 22.6 °C 1012.8 hPa Calm   1.6 km/h 51% 0 mm WeatherDisplay:10.37 W/m2 BKN
14:00 33.6 °C 22.7 °C 1012.8 hPa Calm   3.2 km/h 53% 0 mm WeatherDisplay:10.37 W/m2 BKN
14:10 33.2 °C 22.3 °C 1012.4 hPa South 1.6 km/h 3.2 km/h 53% 0 mm WeatherDisplay:10.37 W/m2 BKN
14:15 32.6 °C 22.1 °C 1012.4 hPa Calm     54% 0 mm WeatherDisplay:10.37 W/m2 BKN
14:20 32.6 °C 22.3 °C 1012.4 hPa Calm     55% 0 mm WeatherDisplay:10.37 W/m2 BKN
14:25 32.2 °C 22.1 °C 1012.4 hPa Calm     55% 0 mm WeatherDisplay:10.37 W/m2 BKN
14:30 32.1 °C 22.8 °C 1012.4 hPa Calm     58% 0 mm WeatherDisplay:10.37 W/m2 BKN
14:40 32.2 °C 23.9 °C 1012.4 hPa Calm   3.2 km/h 62% 0 mm WeatherDisplay:10.37 W/m2 BKN
14:45 32.2 °C 23.2 °C 1012.4 hPa Calm   1.6 km/h 59% 0 mm WeatherDisplay:10.37 W/m2 BKN
14:50 32.1 °C 22.6 °C 1012.1 hPa Calm   1.6 km/h 57% 0 mm WeatherDisplay:10.37 W/m2 BKN
14:55 32 °C 21.8 °C 1012.4 hPa Calm   1.6 km/h 55% 0 mm WeatherDisplay:10.37 W/m2 BKN
15:00 31.9 °C 22.3 °C 1012.1 hPa Calm   1.6 km/h 57% 0 mm WeatherDisplay:10.37 W/m2 BKN
15:10 31 °C 22.3 °C 1012.1 hPa Calm   1.6 km/h 60% 0 mm WeatherDisplay:10.37 W/m2 BKN
15:15 30.7 °C 23.1 °C 1012.1 hPa ESE 1.6 km/h 3.2 km/h 64% 0 mm WeatherDisplay:10.37 W/m2 BKN
15:20 30.6 °C 22.4 °C 1011.7 hPa Calm   3.2 km/h 62% 0 mm WeatherDisplay:10.37 W/m2 BKN
15:25 30.8 °C 22.4 °C 1011.7 hPa Calm     61% 0 mm WeatherDisplay:10.37 W/m2 BKN
15:30 31 °C 21.2 °C 1011.7 hPa Calm     56% 0 mm WeatherDisplay:10.37 W/m2 BKN
15:35 31.3 °C 22.3 °C 1011.4 hPa Calm     59% 0 mm WeatherDisplay:10.37 W/m2 BKN
15:40 31.2 °C 21.7 °C 1011.4 hPa Calm     57% 0 mm WeatherDisplay:10.37 W/m2 BKN
15:45 30.9 °C 22.2 °C 1011.4 hPa Calm     60% 0 mm WeatherDisplay:10.37 W/m2 BKN
15:50 30.7 °C 22.3 °C 1011.4 hPa Calm     61% 0 mm WeatherDisplay:10.37 W/m2 BKN
15:55 30.7 °C 22.8 °C 1011.4 hPa Calm     63% 0 mm WeatherDisplay:10.37 W/m2 BKN
16:00 30.8 °C 22.2 °C 1011.1 hPa Calm     60% 0 mm WeatherDisplay:10.37 W/m2 BKN
16:05 31.1 °C 22.4 °C 1011.1 hPa Calm     60% 0 mm WeatherDisplay:10.37 W/m2 BKN
16:10 31.3 °C 22 °C 1011.1 hPa Calm     58% 0 mm WeatherDisplay:10.37 W/m2 BKN
16:15 31.3 °C 21.8 °C 1011.4 hPa Calm   1.6 km/h 57% 0 mm WeatherDisplay:10.37 W/m2 BKN
16:20 31.2 °C 22.8 °C 1011.4 hPa Calm   1.6 km/h 61% 0 mm WeatherDisplay:10.37 W/m2 BKN
16:25 31.1 °C 22.9 °C 1011.4 hPa Calm     62% 0 mm WeatherDisplay:10.37 W/m2 BKN
16:30 30.9 °C 23.1 °C 1011.4 hPa Calm   1.6 km/h 63% 0 mm WeatherDisplay:10.37 W/m2 BKN
16:35 30.8 °C 22.7 °C 1011.4 hPa Calm   1.6 km/h 62% 0 mm WeatherDisplay:10.37 W/m2 BKN
16:40 31 °C 22.1 °C 1011.4 hPa Calm   1.6 km/h 59% 0 mm WeatherDisplay:10.37 W/m2 BKN
16:45 31.1 °C 22.4 °C 1011.1 hPa Calm   1.6 km/h 60% 0 mm WeatherDisplay:10.37 W/m2 BKN
16:50 31 °C 22.3 °C 1011.1 hPa Calm   1.6 km/h 60% 0 mm WeatherDisplay:10.37 W/m2 BKN
16:55 31.1 °C 22.1 °C 1010.7 hPa Calm   1.6 km/h 59% 0 mm WeatherDisplay:10.37 W/m2 BKN
17:00 30.9 °C 22.3 °C 1010.4 hPa Calm     60% 0 mm WeatherDisplay:10.37 W/m2 BKN
17:05 30.6 °C 22.7 °C 1010.4 hPa Calm   1.6 km/h 63% 0 mm WeatherDisplay:10.37 W/m2 BKN
17:10 30.2 °C 23.2 °C 1010.4 hPa Calm   1.6 km/h 66% 0 mm WeatherDisplay:10.37 W/m2 BKN
17:20 29.9 °C 22.8 °C 1010.7 hPa Calm     66% 0 mm WeatherDisplay:10.37 W/m2 BKN
17:25 30.2 °C 22.6 °C 1011.1 hPa Calm   1.6 km/h 64% 0 mm WeatherDisplay:10.37 W/m2 BKN
17:30 30.3 °C 22.4 °C 1011.1 hPa Calm   1.6 km/h 63% 0 mm WeatherDisplay:10.37 W/m2 BKN
17:35 30.3 °C 22.8 °C 1011.1 hPa Calm   1.6 km/h 64% 0 mm WeatherDisplay:10.37 W/m2 BKN
17:40 30.4 °C 23.1 °C 1011.1 hPa Calm     65% 0 mm WeatherDisplay:10.37 W/m2 BKN
17:45 30.4 °C 23.1 °C 1011.1 hPa Calm   1.6 km/h 65% 0 mm WeatherDisplay:10.37 W/m2 BKN
17:50 30.3 °C 22.9 °C 1010.7 hPa Calm     65% 0 mm WeatherDisplay:10.37 W/m2 BKN
17:55 30.1 °C 23.3 °C 1011.1 hPa Calm     67% 0 mm WeatherDisplay:10.37 W/m2 BKN
18:00 29.8 °C 22.8 °C 1011.1 hPa Calm     66% 0 mm WeatherDisplay:10.37 W/m2 BKN
18:10 29.7 °C 23.4 °C 1011.1 hPa Calm     69% 0 mm WeatherDisplay:10.37 W/m2 BKN
18:15 29.5 °C 22.9 °C 1011.4 hPa Calm   1.6 km/h 68% 0 mm WeatherDisplay:10.37 W/m2 BKN
18:20 29.2 °C 22.4 °C 1011.4 hPa Calm   1.6 km/h 67% 0 mm WeatherDisplay:10.37 W/m2 BKN
18:25 28.9 °C 22.4 °C 1011.4 hPa Calm     68% 0 mm WeatherDisplay:10.37 W/m2 BKN
18:30 28.6 °C 22.3 °C 1011.4 hPa Calm     69% 0 mm WeatherDisplay:10.37 W/m2 BKN
18:35 28.4 °C 22.4 °C 1011.4 hPa Calm     70% 0 mm WeatherDisplay:10.37 W/m2 BKN
18:40 28.3 °C 22.1 °C 1011.4 hPa Calm   3.2 km/h 69% 0 mm WeatherDisplay:10.37 W/m2 BKN
18:45 28.2 °C 21.9 °C 1011.7 hPa Calm   1.6 km/h 69% 0 mm WeatherDisplay:10.37 W/m2 BKN
18:50 28.1 °C 22.1 °C 1011.7 hPa Calm   1.6 km/h 70% 0 mm WeatherDisplay:10.37 W/m2 BKN
18:55 28.1 °C 22.1 °C 1011.7 hPa Calm   1.6 km/h 70% 0 mm WeatherDisplay:10.37 W/m2 BKN
19:05 27.8 °C 22.3 °C 1011.7 hPa Calm   1.6 km/h 72% 0 mm WeatherDisplay:10.37 W/m2 BKN
19:10 27.7 °C 22.2 °C 1011.4 hPa Calm     72% 0 mm WeatherDisplay:10.37 W/m2 BKN
19:15 27.6 °C 22.3 °C 1011.7 hPa Calm     73% 0 mm WeatherDisplay:10.37 W/m2 BKN
19:20 27.4 °C 22.4 °C 1011.7 hPa Calm   1.6 km/h 74% 0 mm WeatherDisplay:10.37 W/m2 BKN
19:25 27.3 °C 22.4 °C 1011.7 hPa Calm   1.6 km/h 75% 0 mm WeatherDisplay:10.37 W/m2 -RA
19:30 27.2 °C 22.4 °C 1011.7 hPa Calm     75% 0 mm WeatherDisplay:10.37 W/m2 -RA
19:35 27.1 °C 22.4 °C 1012.1 hPa Calm     76% 0 mm WeatherDisplay:10.37 W/m2 -RA
19:40 26.8 °C 22.9 °C 1012.1 hPa Calm     79% 0 mm WeatherDisplay:10.37 W/m2 -RA
19:45 26.6 °C 22.8 °C 1012.1 hPa Calm     80% 0 mm WeatherDisplay:10.37 W/m2 -RA
19:50 26.3 °C 22.8 °C 1012.1 hPa Calm   1.6 km/h 81% 0 mm WeatherDisplay:10.37 W/m2 -RA
19:55 26 °C 22.9 °C 1012.1 hPa Calm   1.6 km/h 83% 0 mm WeatherDisplay:10.37 W/m2 BKN
20:00 25.8 °C 22.7 °C 1011.7 hPa Calm     83% 0 mm WeatherDisplay:10.37 W/m2 BKN
20:05 25.7 °C 22.8 °C 1012.1 hPa Calm     84% 0 mm WeatherDisplay:10.37 W/m2 BKN
20:10 25.6 °C 22.9 °C 1012.1 hPa Calm     85% 0 mm WeatherDisplay:10.37 W/m2 BKN
20:15 25.5 °C 22.8 °C 1012.1 hPa Calm     85% 0 mm WeatherDisplay:10.37 W/m2 BKN
20:20 25.4 °C 22.9 °C 1012.1 hPa Calm     86% 0 mm WeatherDisplay:10.37 W/m2 BKN
20:25 25.3 °C 22.8 °C 1012.1 hPa Calm     86% 0 mm WeatherDisplay:10.37 W/m2 BKN
20:30 25.3 °C 22.9 °C 1012.1 hPa Calm     87% 0 mm WeatherDisplay:10.37 W/m2 BKN
20:35 25.2 °C 22.8 °C 1012.1 hPa Calm   1.6 km/h 87% 0 mm WeatherDisplay:10.37 W/m2 BKN
20:40 25.2 °C 22.8 °C 1012.1 hPa Calm     87% 0 mm WeatherDisplay:10.37 W/m2 BKN
20:45 25.1 °C 22.8 °C 1012.1 hPa Calm     87% 0 mm WeatherDisplay:10.37 W/m2 BKN
20:50 25.1 °C 22.8 °C 1012.1 hPa Calm     87% 0 mm WeatherDisplay:10.37 W/m2 BKN
20:55 25.1 °C 22.8 °C 1012.1 hPa Calm   1.6 km/h 87% 0 mm WeatherDisplay:10.37 W/m2 BKN
21:00 25.1 °C 22.7 °C 1012.1 hPa Calm     87% 0 mm WeatherDisplay:10.37 W/m2 BKN
21:10 25 °C 22.7 °C 1012.4 hPa Calm     87% 0 mm WeatherDisplay:10.37 W/m2 BKN
21:15 25 °C 22.7 °C 1012.4 hPa Calm     87% 0 mm WeatherDisplay:10.37 W/m2 BKN
21:20 24.9 °C 22.6 °C 1012.8 hPa Calm     87% 0 mm WeatherDisplay:10.37 W/m2 BKN
21:25 24.9 °C 22.6 °C 1012.8 hPa Calm     87% 0 mm WeatherDisplay:10.37 W/m2 BKN
21:30 24.9 °C 22.6 °C 1012.8 hPa Calm     87% 0 mm WeatherDisplay:10.37 W/m2 BKN
21:35 24.8 °C 22.5 °C 1012.8 hPa Calm     87% 0 mm WeatherDisplay:10.37 W/m2 BKN
21:40 24.8 °C 22.7 °C 1012.8 hPa Calm     88% 0 mm WeatherDisplay:10.37 W/m2 BKN
21:45 24.8 °C 22.7 °C 1013.1 hPa Calm     88% 0 mm WeatherDisplay:10.37 W/m2 BKN
21:50 24.7 °C 22.6 °C 1013.1 hPa Calm     88% 0 mm WeatherDisplay:10.37 W/m2 BKN
21:55 24.7 °C 22.6 °C 1013.1 hPa Calm     88% 0 mm WeatherDisplay:10.37 W/m2 BKN
22:00 24.6 °C 22.5 °C 1013.1 hPa Calm     88% 0 mm WeatherDisplay:10.37 W/m2 BKN
22:10 24.6 °C 22.4 °C 1013.1 hPa Calm     88% 0 mm WeatherDisplay:10.37 W/m2 BKN
22:15 24.4 °C 22.3 °C 1013.4 hPa Calm     88% 0 mm WeatherDisplay:10.37 W/m2 BKN
22:20 24.4 °C 22.3 °C 1013.4 hPa Calm     88% 0 mm WeatherDisplay:10.37 W/m2 BKN
22:25 24.4 °C 22.4 °C 1013.1 hPa Calm     89% 0 mm WeatherDisplay:10.37 W/m2 BKN
22:30 24.3 °C 22.3 °C 1013.4 hPa Calm     89% 0 mm WeatherDisplay:10.37 W/m2 BKN
22:35 24.3 °C 22.3 °C 1013.4 hPa Calm     89% 0 mm WeatherDisplay:10.37 W/m2 BKN
22:40 24.2 °C 22.3 °C 1013.4 hPa Calm     89% 0 mm WeatherDisplay:10.37 W/m2 BKN
22:45 24.2 °C 22.2 °C 1013.4 hPa Calm     89% 0 mm WeatherDisplay:10.37 W/m2 BKN
22:50 24.1 °C 22.2 °C 1013.4 hPa Calm     89% 0 mm WeatherDisplay:10.37 W/m2 BKN
22:55 24.1 °C 22.1 °C 1013.4 hPa Calm     89% 0 mm WeatherDisplay:10.37 W/m2 BKN
23:00 24 °C 22.1 °C 1013.4 hPa Calm     89% 0 mm WeatherDisplay:10.37 W/m2 BKN
23:05 23.9 °C 22 °C 1013.4 hPa Calm     89% 0 mm WeatherDisplay:10.37 W/m2 BKN
23:10 23.9 °C 22 °C 1013.1 hPa Calm     89% 0 mm WeatherDisplay:10.37 W/m2 BKN
23:15 23.9 °C 21.9 °C 1013.1 hPa Calm     89% 0 mm WeatherDisplay:10.37 W/m2 BKN
23:20 23.8 °C 22.1 °C 1013.1 hPa Calm     90% 0 mm WeatherDisplay:10.37 W/m2 BKN
23:25 23.8 °C 22.1 °C 1013.1 hPa Calm     90% 0 mm WeatherDisplay:10.37 W/m2 BKN
23:30 23.8 °C 22.1 °C 1013.1 hPa Calm     90% 0 mm WeatherDisplay:10.37 W/m2 BKN
23:35 23.7 °C 22 °C 1013.1 hPa Calm     90% 0 mm WeatherDisplay:10.37 W/m2 BKN
23:40 23.7 °C 22 °C 1012.8 hPa Calm     90% 0 mm WeatherDisplay:10.37 W/m2 BKN
23:45 23.7 °C 22 °C 1012.8 hPa Calm     90% 0 mm WeatherDisplay:10.37 W/m2 BKN
23:50 23.7 °C 21.9 °C 1013.1 hPa Calm     90% 0 mm WeatherDisplay:10.37 W/m2 BKN
23:55 23.7 °C 22.1 °C 1012.8 hPa Calm     91% 0 mm WeatherDisplay:10.37 W/m2 BKN
Piedmont Bend
Compliments of Weather Underground - 4 mb